CW5346 Weather Reports


Display with metric or nautical units.
time (UTC)temp
F
wind
direction
speed
MPH
gust
MPH
rain 1hr
in
rain 24hr
in
rain mn
in
humidity
%
barometer
mb
20260831185603 76 197 0.0 0.0 0.00 0.03 0.00 77 1019.4
20260831184604 77 197 0.0 0.0 0.00 0.03 0.00 75 1019.5
20260831183604 77 197 0.0 0.0 0.00 0.03 0.00 77 1019.4
20260831182603 77 197 0.0 0.0 0.00 0.03 0.00 73 1019.4
20260831181604 78 197 0.0 0.0 0.00 0.03 0.00 73 1019.6
20260831180603 78 197 0.0 5.0 0.00 0.03 0.00 72 1019.6
20260831175625 78 201 0.0 0.0 0.00 0.03 0.00 73 1019.8
20260831174604 78 201 0.0 0.0 0.00 0.03 0.00 73 1019.8
20260831173604 78 201 0.0 0.0 0.00 0.03 0.00 73 1019.9
20260831172604 77 201 0.0 1.0 0.00 0.03 0.00 76 1020.0
20260831171604 77 201 0.0 0.0 0.00 0.03 0.00 75 1019.9
20260831170604 76 201 0.0 0.0 0.00 0.03 0.00 73 1019.9
20260831165604 76 201 0.0 4.0 0.00 0.03 0.00 73 1020.0
20260831164604 77 200 2.0 4.0 0.00 0.03 0.00 74 1020.2
20260831163603 77 201 0.0 2.0 0.00 0.03 0.00 76 1019.9
20260831162604 77 201 0.0 0.0 0.00 0.03 0.00 75 1020.2
20260831161603 77 201 0.0 0.0 0.00 0.03 0.00 75 1020.0
20260831160604 77 201 0.0 4.0 0.00 0.03 0.00 76 1020.0
20260831155603 76 203 0.0 2.0 0.00 0.03 0.00 74 1020.1
20260831154604 76 211 0.0 0.0 0.00 0.03 0.00 74 1020.3
20260831153604 76 215 0.0 1.0 0.00 0.03 0.00 74 1020.2
20260831152603 76 216 0.0 2.0 0.00 0.03 0.00 77 1020.3
20260831151604 76 217 0.0 0.0 0.00 0.03 0.00 78 1020.4
20260831150603 75 217 0.0 0.0 0.00 0.03 0.00 78 1020.4
20260831145603 74 214 2.0 6.0 0.00 0.03 0.00 82 1020.4
20260831144604 73 217 1.0 3.0 0.00 0.03 0.00 83 1020.4
20260831143603 72 221 0.0 0.0 0.00 0.03 0.00 85 1020.5
20260831142604 71 221 0.0 0.0 0.00 0.03 0.00 86 1020.5
20260831141624 71 221 0.0 0.0 0.00 0.03 0.00 87 1020.6
20260831140605 71 221 0.0 0.0 0.00 0.03 0.00 88 1020.5
20260831135603 70 221 0.0 0.0 0.00 0.03 0.00 88 1020.4
20260831134624 69 221 0.0 0.0 0.00 0.03 0.00 90 1020.4
20260831133604 68 221 0.0 0.0 0.00 0.03 0.00 93 1020.4
20260831132603 68 221 0.0 0.0 0.00 0.03 0.00 94 1020.3
20260831131625 68 221 0.0 0.0 0.00 0.03 0.00 95 1020.4
20260831130603 68 221 0.0 0.0 0.00 0.03 0.00 95 1020.4
20260831125604 67 221 0.0 0.0 0.00 0.03 0.00 96 1020.4
20260831124625 67 221 0.0 0.0 0.00 0.03 0.00 96 1020.4
20260831123604 67 221 0.0 0.0 0.00 0.03 0.00 96 1020.3
20260831121604 66 221 0.0 0.0 0.00 0.03 0.00 96 1020.5
20260831120604 66 221 0.0 0.0 0.00 0.03 0.00 97 1020.4
20260831115604 66 221 0.0 0.0 0.00 0.03 0.00 97 1020.4
20260831114603 66 221 0.0 0.0 0.00 0.03 0.00 96 1020.4
20260831113624 66 221 0.0 0.0 0.00 0.03 0.00 96 1020.2
20260831112603 66 221 0.0 0.0 0.00 0.03 0.00 96 1020.1
20260831111604 65 221 0.0 0.0 0.00 0.03 0.00 96 1019.8
20260831110604 65 221 0.0 0.0 0.00 0.03 0.00 96 1019.6
20260831105604 65 221 0.0 0.0 0.00 0.03 0.00 96 1019.8
20260831104603 65 221 0.0 0.0 0.00 0.03 0.00 96 1019.8
20260831102603 65 221 0.0 0.0 0.00 0.03 0.00 96 1019.7
20260831101604 65 221 0.0 0.0 0.00 0.03 0.00 96 1019.7
20260831100624 65 221 0.0 0.0 0.00 0.03 0.00 96 1019.6
20260831095604 66 221 0.0 0.0 0.00 0.03 0.00 96 1019.5
20260831094603 66 221 0.0 0.0 0.00 0.03 0.00 96 1019.4
20260831093603 66 221 0.0 0.0 0.00 0.03 0.00 96 1019.3
20260831092604 66 221 0.0 0.0 0.00 0.03 0.00 96 1019.2
20260831091625 66 221 0.0 0.0 0.00 0.03 0.00 96 1019.1
20260831090603 66 221 0.0 0.0 0.00 0.03 0.00 96 1018.9
20260831085604 66 221 0.0 0.0 0.00 0.03 0.00 96 1019.0
20260831084603 66 221 0.0 0.0 0.00 0.03 0.00 96 1018.9
20260831083604 66 221 0.0 0.0 0.00 0.03 0.00 96 1019.0
20260831082604 66 221 0.0 0.0 0.00 0.03 0.00 96 1019.0
20260831081603 66 221 0.0 0.0 0.00 0.03 0.00 96 1019.1
20260831080604 66 221 0.0 0.0 0.00 0.03 0.00 96 1018.9
20260831075603 66 221 0.0 0.0 0.00 0.03 0.00 97 1019.0
20260831074625 66 221 0.0 0.0 0.00 0.03 0.00 97 1018.9
20260831073604 66 221 0.0 0.0 0.00 0.03 0.00 97 1018.9
20260831072603 66 221 0.0 0.0 0.00 0.03 0.00 97 1018.8
20260831071604 66 221 0.0 6.0 0.00 0.03 0.00 97 1018.8
20260831070603 66 218 0.0 0.0 0.00 0.03 0.00 97 1018.9
20260831065603 67 218 0.0 0.0 0.00 0.03 0.00 97 1019.1
20260831064604 67 218 0.0 0.0 0.00 0.03 0.00 98 1019.2
20260831063604 66 218 0.0 0.0 0.00 0.03 0.00 97 1019.2
20260831062603 66 218 0.0 0.0 0.00 0.03 0.00 97 1019.0
20260831061625 66 218 0.0 0.0 0.00 0.03 0.00 97 1019.0
20260831060603 66 218 0.0 0.0 0.00 0.03 0.00 97 1019.1
20260831054604 66 218 0.0 0.0 0.00 0.03 0.00 97 1019.0
20260831053603 66 218 0.0 0.0 0.00 0.03 0.00 97 1019.1
20260831052603 67 218 0.0 0.0 0.00 0.03 0.00 97 1019.0
20260831051604 67 218 0.0 0.0 0.00 0.03 0.00 97 1019.2
20260831050604 67 218 0.0 0.0 0.00 0.03 0.00 97 1019.1
20260831045624 67 218 0.0 0.0 0.00 0.03 0.00 97 1019.0
20260831044603 67 218 0.0 0.0 0.00 0.03 0.00 97 1019.2
20260831043625 67 218 0.0 0.0 0.00 0.03 0.00 97 1019.2
20260831042603 67 218 0.0 0.0 0.00 0.03 0.00 97 1019.0
20260831041603 68 218 0.0 0.0 0.00 0.03 0.00 96 1019.0
20260831040604 68 218 0.0 0.0 0.00 0.03 0.00 96 1018.8
20260831035624 68 218 0.0 0.0 0.00 0.03 0.03 96 1018.7
20260831034603 69 218 0.0 0.0 0.00 0.03 0.03 96 1018.8
20260831033604 69 218 0.0 0.0 0.00 0.03 0.03 96 1018.8
20260831032603 70 218 0.0 0.0 0.00 0.03 0.03 97 1018.8
20260831031604 70 218 0.0 0.0 0.00 0.03 0.03 97 1019.0
20260831030604 70 218 0.0 0.0 0.00 0.03 0.03 97 1018.9
20260831025603 70 218 0.0 0.0 0.00 0.03 0.03 97 1019.1
20260831024603 71 218 0.0 0.0 0.00 0.03 0.03 96 1019.3
20260831023603 71 218 0.0 0.0 0.00 0.03 0.03 96 1019.1
20260831022604 71 218 0.0 0.0 0.00 0.03 0.03 97 1019.1
20260831021603 71 218 0.0 0.0 0.00 0.03 0.03 97 1019.2
20260831020603 71 218 0.0 0.0 0.00 0.03 0.03 96 1019.3
20260831015603 71 218 0.0 0.0 0.01 0.03 0.03 96 1019.4
20260831014625 71 218 0.0 0.0 0.01 0.03 0.03 96 1019.5
20260831013603 72 218 0.0 0.0 0.01 0.03 0.03 96 1019.1
20260831012603 72 218 0.0 0.0 0.01 0.03 0.03 96 1019.0
20260831011603 72 218 0.0 0.0 0.01 0.03 0.03 96 1018.9
20260831010603 72 218 0.0 0.0 0.01 0.03 0.03 95 1018.9
20260831005603 72 218 0.0 0.0 0.01 0.02 0.02 95 1018.8
20260831004624 72 218 0.0 0.0 0.01 0.02 0.02 95 1018.6
20260831002603 73 218 0.0 0.0 0.00 0.01 0.01 94 1018.5
20260831001603 73 218 0.0 0.0 0.00 0.01 0.01 94 1018.3
20260831000603 73 218 0.0 0.0 0.00 0.01 0.01 93 1018.3
20260830235603 73 218 0.0 0.0 0.00 0.00 0.00 93 1018.0
20260830234603 74 218 0.0 0.0 0.00 0.00 0.00 92 1017.9
20260830233603 74 218 0.0 0.0 0.00 0.00 0.00 91 1017.8
20260830232603 75 218 0.0 0.0 0.00 0.00 0.00 90 1017.8
20260830231603 75 218 0.0 0.0 0.00 0.00 0.00 89 1017.7
20260830230624 75 218 0.0 0.0 0.00 0.00 0.00 88 1017.7
20260830225625 75 218 0.0 0.0 0.00 0.00 0.00 87 1017.8
20260830224624 76 218 0.0 0.0 0.00 0.00 0.00 88 1017.8
20260830223603 76 218 0.0 0.0 0.00 0.00 0.00 88 1017.9
20260830222603 76 218 0.0 0.0 0.00 0.00 0.00 87 1017.8
20260830221603 76 218 0.0 0.0 0.00 0.00 0.00 87 1017.9
20260830220603 77 218 0.0 0.0 0.00 0.00 0.00 87 1017.7
20260830215624 77 218 0.0 0.0 0.00 0.00 0.00 86 1017.9
20260830214624 77 218 0.0 0.0 0.00 0.00 0.00 85 1017.9
20260830213603 77 218 0.0 7.0 0.00 0.00 0.00 84 1017.9
20260830212603 77 213 0.0 3.0 0.00 0.00 0.00 84 1017.7
20260830211603 77 212 0.0 9.0 0.00 0.00 0.00 84 1017.6
20260830210603 77 211 0.0 7.0 0.00 0.00 0.00 84 1017.5
20260830205603 77 215 1.0 10.0 0.00 0.00 0.00 83 1017.7
20260830204603 77 213 0.0 7.0 0.00 0.00 0.00 84 1017.7
20260830203604 77 214 0.0 9.0 0.00 0.00 0.00 84 1018.1
20260830202603 77 224 1.0 14.0 0.00 0.00 0.00 84 1018.1
20260830201603 77 203 5.0 14.0 0.00 0.00 0.00 84 1018.4
20260830200624 76 222 2.0 7.0 0.00 0.00 0.00 85 1018.3
20260830195603 76 220 1.0 8.0 0.00 0.00 0.00 85 1018.6
20260830194603 75 215 2.0 6.0 0.00 0.00 0.00 86 1018.6
20260830193603 75 212 1.0 4.0 0.00 0.00 0.00 88 1018.7
20260830192603 75 213 0.0 0.0 0.00 0.00 0.00 87 1018.9
20260830191603 75 212 0.0 6.0 0.00 0.00 0.00 87 1019.1
20260830190602 75 221 1.0 7.0 0.00 0.00 0.00 87 1019.1